Location: Ethel Rock
(53.4667°N, 4.5667°W)
Time: 01:29:37
(UTC+00:00)

Lacrosse 5 rocket - Pass Details

Date: 24 October 2020
Orbit: 458 x 638 km, 57.0° (Epoch: 26 November)

Event Time Altitude Azimuth Distance (km) Brightness Sun altitude
Exits shadow 04:44:59 - 176° (S) 2,417 4.6 -21.0°
Reaches altitude 10° 04:48:37 10° 135° (SE) 1,645 4.2 -20.5°
Maximum altitude 04:49:17 10° 125° (SE) 1,628 4.4 -20.4°
Drops below altitude 10° 04:49:56 10° 115° (ESE) 1,658 4.6 -20.3°
Sets 04:53:56 0° 73° (ENE) 2,595 6.3 -19.7°
